PDT,Max TemperatureF,Mean TemperatureF,Min TemperatureF,Max Dew PointF,MeanDew PointF,Min DewpointF,Max Humidity, Mean Humidity, Min Humidity, Max Sea Level PressureIn, Mean Sea Level PressureIn, Min Sea Level PressureIn, Max VisibilityMiles, Mean VisibilityMiles, Min VisibilityMiles, Max Wind SpeedMPH, Mean Wind SpeedMPH, Max Gust SpeedMPH,PrecipitationIn, CloudCover, Events, WindDirDegrees
2012-10-1,95,70,46,46,36,27,62,38,9,30.24,30.16,30.05,10.0,10.0,10.0,9,2,,0.00,0,,249
2012-10-2,93,70,48,39,32,21,58,34,8,30.13,30.05,29.93,10.0,10.0,10.0,10,3,,0.00,0,,244
2012-10-3,91,70,48,45,35,27,62,36,10,30.08,30.03,29.94,10.0,9.7,3.0,10,3,,0.00,0,,240
2012-10-4,86,66,46,48,39,32,66,44,14,30.16,30.10,30.05,10.0,10.0,10.0,7,3,,0.00,0,,259
2012-10-5,75,60,44,46,41,37,76,55,29,30.19,30.15,30.10,10.0,10.0,10.0,10,3,,0.00,0,,238
2012-10-6,77,59,41,46,38,32,87,56,19,30.18,30.10,30.03,10.0,10.0,10.0,9,4,,0.00,0,,258
2012-10-7,78,60,41,43,38,32,87,54,18,30.10,30.04,29.95,10.0,10.0,10.0,8,4,,0.00,0,,251
2012-10-8,69,56,42,46,41,39,87,62,35,30.09,30.06,30.02,10.0,10.0,9.0,10,3,,0.00,3,,241
2012-10-9,71,56,41,43,40,37,93,62,29,30.13,30.07,30.00,10.0,10.0,10.0,8,4,,0.00,0,,263
2012-10-10,80,62,44,43,38,32,81,54,17,30.05,29.99,29.88,10.0,10.0,10.0,8,3,,0.00,0,,270
2012-10-11,78,58,39,48,39,36,87,57,24,30.01,29.94,29.80,10.0,10.0,10.0,13,2,22,0.00,0,,196
2012-10-12,57,55,53,46,46,43,77,70,59,30.30,30.12,30.01,10.0,9.9,7.0,10,3,,0.00,8,,158
2012-10-13,73,62,50,50,47,46,87,69,38,30.38,30.32,30.25,10.0,9.5,3.0,7,2,,0.00,4,,258
2012-10-14,77,60,44,52,47,41,93,68,34,30.31,30.24,30.15,10.0,9.4,1.5,9,3,,0.00,0,,265
2012-10-15,77,64,50,57,50,45,87,65,38,30.22,30.13,30.05,10.0,10.0,10.0,12,3,,0.00,3,,188
2012-10-16,77,66,55,59,44,19,88,52,12,30.19,30.07,30.02,10.0,9.8,5.0,13,3,22,0.00,3,,348
2012-10-17,82,60,37,37,27,14,62,37,8,30.19,30.13,30.05,10.0,10.0,10.0,10,5,17,0.00,0,,244
2012-10-18,84,62,39,41,32,27,70,41,12,30.16,30.11,30.03,10.0,10.0,10.0,9,4,,0.00,0,,255
2012-10-19,77,59,41,45,38,32,76,52,26,30.16,30.08,29.94,10.0,10.0,10.0,13,3,20,0.00,1,,266
2012-10-20,68,55,42,46,32,5,93,52,10,30.00,29.93,29.86,10.0,10.0,10.0,10,4,,0.00,0,,253
2012-10-21,60,48,35,39,30,19,75,51,22,29.96,29.88,29.76,10.0,10.0,10.0,16,5,23,0.00,2,,212
2012-10-22,50,44,37,41,37,32,100,82,50,29.84,29.77,29.72,10.0,8.5,3.0,20,5,29,0.32,6,,211
2012-10-23,50,44,37,39,35,30,100,79,50,30.03,29.97,29.84,10.0,8.9,4.0,14,5,20,0.18,7,,204
2012-10-24,50,44,37,41,37,34,100,85,54,30.24,30.09,29.99,10.0,9.3,3.0,13,3,21,0.01,7,,277
2012-10-25,55,45,35,36,34,32,93,73,41,30.40,30.35,30.24,10.0,10.0,10.0,8,4,,0.00,3,,264
2012-10-26,62,47,32,48,38,30,100,77,45,30.40,30.31,30.20,10.0,10.0,10.0,7,4,,0.00,4,,283
2012-10-27,68,54,41,55,47,41,100,84,52,30.26,30.20,30.12,10.0,10.0,10.0,6,2,,0.00,2,,275
2012-10-28,66,54,41,54,46,39,100,84,52,30.19,30.13,30.05,10.0,9.6,2.5,6,2,,0.00,2,,278
2012-10-29,68,54,41,54,45,39,100,81,43,30.26,30.19,30.14,10.0,10.0,7.0,6,2,,0.00,2,,280
2012-10-30,68,54,41,48,44,41,100,78,40,30.18,30.11,30.03,10.0,10.0,9.0,10,2,17,0.00,1,,239
2012-10-31,55,50,46,48,46,41,100,92,58,30.02,29.98,29.95,10.0,8.0,2.5,8,2,,0.41,6,,251